Location: Saratoga Springs
(43.0831°N, 73.7850°W)
Time: 06:14:42
(UTC-04:00)

Vanguard 2 - Pass Details

Date: 20 April 2024
Orbit: 553 x 2914 km, 32.9° (Epoch: 17 May)

Event Time Altitude Azimuth Distance (km) Brightness Sun altitude
Rises 09:38:54 0° 277° (W) 6,669 11.8 37.7°
Reaches altitude 10° 09:45:34 10° 263° (W) 5,408 11.5 38.8°
Maximum altitude 09:54:32 18° 227° (SW) 4,205 11.3 40.3°
Drops below altitude 10° 10:01:51 10° 190° (S) 4,253 11.6 41.5°
Sets 10:06:11 0° 172° (S) 4,819 12.0 42.2°
